Location: ????????
(60.5616°N, 46.8254°E)
Time: 06:58:57
(UTC+00:00)

Cosmos 1331 Rocket - Pass Details

Date: 18 February 2020
Orbit: 750 x 777 km, 74.0° (Epoch: 30 March)

Event Time Altitude Azimuth Distance (km) Brightness Sun altitude
Rises 14:53:28 0° 211° (SSW) 3,253 7.9 -8.5°
Reaches altitude 10° 14:55:50 10° 211° (SSW) 2,330 7.1 -8.8°
Maximum altitude 15:01:09 90° 300° (WNW) 787 4.1 -9.5°
Drops below altitude 10° 15:06:30 10° 33° (NNE) 2,339 6.1 -10.1°
Sets 15:08:53 0° 34° (NE) 3,267 6.9 -10.4°
